Regional Weather Roundup
Issued by NWS

Home | Current Version | Previous Version | Text Only | Print | Product List | Glossary Off
Versions: 1 2 3 4 5 6 7 8 9 10 11 12 13 14 15 16 17 18 19 20 21 22 23 24 25 26 27 28 29 30 31 32 33 34 35 36 37 38 39 40 41 42 43 44 45 46 47 48 49 50

629
ASUS45 KCYS 120910
RWRWY

WYOMING REGIONAL WEATHER ROUNDUP
NATIONAL WEATHER SERVICE CHEYENNE WY
200 AM MST FRI FEB 12 2016

NOTE:  "FAIR" INDICATES FEW OR NO CLOUDS BELOW 12,000 FEET
WITH NO SIGNIFICANT WEATHER AND/OR OBSTRUCTIONS TO VISIBILITY.

WYZ001-121000-
YELLOWSTONE NATIONAL PARK

CITY           SKY/WX    TMP DP  RH WIND       PRES   REMARKS
LK YELLOWSTONE   N/A     29  27  92 CALM      30.35S
W YELLOWSTONE  NOT AVBL

$$
WYZ002>013-054>058-071-098>099-121000-
NORTHERN WYOMING

CITY           SKY/WX    TMP DP  RH WIND       PRES   REMARKS
JACKSON        CLOUDY    32  32 100 N10       30.35S WCI  24
CODY           MOCLDY    37  19  48 SE5       30.24S WCI  34
GREYBULL       CLOUDY    36  28  73 S3        30.23S
WORLAND        CLOUDY    35  29  78 S6        30.23R WCI  30
SHERIDAN       FAIR      30  24  78 CALM      30.26R
BUFFALO        FAIR      33  24  69 W9        30.26R WCI  25
GILLETTE       FAIR      25  23  92 S3        30.25R
HULETT         PTSUNNY   32  30  93 W6        30.27R WCI  26
NEWCASTLE      FAIR      32  27  80 N9        30.24S WCI  24

$$
WYZ014>020-022>026-101>103-121000-
CENTRAL WYOMING

CITY           SKY/WX    TMP DP  RH WIND       PRES   REMARKS
BIG PINEY      FAIR      22  19  89 CALM      30.37F
PINEDALE         N/A     23  21  93 NW7       30.37S WCI  15
DUBOIS         FAIR      34  30  86 NW16      30.28R WCI  23
LANDER         CLOUDY    38  24  57 SE3       30.23R
RIVERTON       CLOUDY    34  25  69 CALM      30.24S
CASPER         MOCLDY    36  24  62 SW10      30.24S WCI  28
DOUGLAS        FAIR      28  25  88 N3        30.26R

$$
WYZ021-027>030-104>119-121000-
SOUTHERN WYOMING

CITY           SKY/WX    TMP DP  RH WIND       PRES   REMARKS
EVANSTON       FAIR      35  15  44 S5        30.38S WCI  31
FORT BRIDGER   MOSUNNY   34  21  60 SW8       30.40R WCI  27
ROCK SPRINGS   FAIR      31  18  58 W8        30.36R WCI  23
DIXON          CLOUDY    26  18  71 E6        30.41R WCI  20
RAWLINS        CLOUDY    36  21  54 SW12      30.31R WCI  28
SARATOGA       CLOUDY    32  23  69 SE6       30.34R WCI  26
LARAMIE        MOCLDY    36  23  59 W12       30.28F WCI  28
CHEYENNE       MOCLDY    31  24  75 SW6       30.26S WCI  25
TORRINGTON     FAIR      31  25  78 N5        30.24R WCI  26
PINE BLUFFS    FAIR      32  27  80 W7        30.27S WCI  26

$$




USA.gov is the U.S. government's official web portal to all federal, state and local government web resources and services.